www.pogodaiklimat.ru

Погода и климат >> Архив погоды >> Гондурас >> Amapala


ПОГОДА в Amapala

  • Прогноз погоды в Amapala
  • Монитор погоды в Amapala
  • Климат города

АРХИВ ПОГОДЫ в Amapala

Время (UTC), дата Ветер
(напр.,м/с)
 
Видим.   Явления Облачность Т
(С)
Тd
(С)
f
(%)
Тe
(С)
Тes
(С)
Комфортность P
(гПа)
Po
(гПа)
Тmin
(С)
Tmax
(С)
R
(мм)
R24
(мм)
S
(см)
03 10.12 С 5 20 км 4/1 900 м
[Cu hum Ci fib]
+29.0 +23.5 72 +39 +39 очень
душно
1013.4 1012.8 +20.2 +34.6
12 10.12 С 6 20 км ясно +24.6 +19.4 73 +30 +30 очень
душно
1015.1 1014.6 +23.5 +34.6
15 10.12 С 7 10 км 3/1 750 м
[Cu hum Ci fib]
+27.6 +18.5 58 +33 +34 очень
душно
1019.9 1019.4
21 10.12 С 9 20 км 6/0
[Ac lent Ci]
+28.8 +18.6 54 +34 +34 очень
душно
1016.7 1016.0
00 11.12 С 7 10 км 3/0
[Ci fib]
+26.0 +15.6 53 +29 +29 душно 1017.9 1017.4 +23.5 +30.5
03 11.12 С 7 10 км 3/0
[Ci fib]
+26.0 +15.6 53 +29 +29 душно 1017.9 1017.4 +23.5 +30.5
12 11.12 СЗ 2 10 км 1/0
[]
+22.8 +17.1 70 +28 +28 душно 1018.4 1017.9 +21.5
15 11.12 С 2 20 км 6/1 600 м
[Cu hum Ac trans Ci]
+25.8 +17.1 59 +30 +34 душно 1018.8 1018.3
21 11.12 С 8 20 км 8/0
[Ac trans Cs]
+31.8 +20.5 51 +39 +39 очень
душно
1014.7 1014.2
00 12.12 С 8 20 км 6/0
[Cs]
+26.2 +19.2 65 +31 +31 очень
душно
1015.6 1015.1 +21.5 +32.5
12 12.12 С 5 10 км 6/0
[Ac cuf Ci fib]
+22.8 +17.7 73 +28 +28 душно 1017.4 1016.9 +21.5 +32.5
15 12.12 С 6 20 км 5/0
[Ac trans Ci]
+27.2 +20.3 66 +34 +36 очень
душно
1018.1 1017.6
18 12.12 С 6 20 км 4/0 210 м
[Ac trans Cs]
+33.2 +22.5 54 +43 +48 опасность
перегрева
1015.7 1015.2 +21.5 +33.2
21 12.12 С 7 20 км 6/0
[Cs]
+32.6 +21.8 53 +41 +42 опасность
перегрева
1013.3 1012.8
00 13.12 С 7 10 км 3/0
[Ac lent Ci fib]
+27.0 +22.3 75 +35 +35 очень
душно
1013.5 1013.0 +21.5 +33.6
15 13.12 С 4 20 км 1/1 750 м
[Cu hum]
+27.4 +22.4 74 +36 +40 очень
душно
1017.7 1017.2
18 13.12 С 2 20 км 8/1 900 м
[Cu hum Cs]
+31.8 +23.0 60 +42 +53 опасность
перегрева
1015.7 1015.2 +20.4 +31.8
21 13.12 С 2 20 км 4/1 900 м
[Cu hum Ci fib]
+32.8 +23.2 57 +43 +48 опасность
перегрева
1011.9 1011.4
00 14.12 С 6 20 км 9/0
[Cs]
+27.2 +24.8 87 +39 +39 очень
душно
1013.4 1012.9 +20.4 +33.6
12 14.12 С 5 10 км ясно +22.0 +19.1 84 +27 +27 душно 1014.1 1013.6 +21.0 +33.6
15 14.12 штиль 0 10 км 1/0
[Ci fib]
+26.4 +19.8 67 +32 +42 очень
душно
1016.1 1016.0
18 14.12 С 1 20 км 1/0
[Ci fib]
+30.6 +19.1 50 +36 +52 опасность
солнечного
удара
1013.7 1012.3 +2.0 +30.6
21 14.12 ЮЗ 3 20 км 3/1 750 м
[Cu hum Ci fib]
+32.2 +16.7 39 +35 +39 очень
душно
1011.6 1011.1
00 15.12 Ю 4 20 км 1/0
[Ci fib]
+26.8 +21.7 74 +34 +34 очень
душно
1012.0 1011.5 +21.0 +32.5
15 15.12 штиль 0 20 км ясно +28.0 +20.9 65 +35 +45 очень
душно
1015.9 1015.4
18 15.12 ЮЗ 2 20 км 1/1 900 м
[Cu hum]
+31.0 +20.9 55 +38 +51 опасность
солнечного
удара
1014.0 1013.5 +21.0 +31.0
21 15.12 В 2 20 км 1/1 900 м
[Cu hum]
+32.0 +22.4 57 +41 +47 опасность
перегрева
1011.8 1011.3
00 16.12 ЮЗ 2 20 км 3/1 900 м
[Cu hum Ac trans]
+28.4 +23.5 75 +39 +39 очень
душно
1011.7 1071.2 +21.0 +33.2
15 16.12 штиль 0 20 км 8/0
[Ac und]
+28.2 +22.7 72 +37 +42 очень
душно
1014.9 1014.4

 

Местоположение метеостанции Amapala (Гондурас): широта 13.27 долгота -87.65 высота над уровнем моря 5 м.

В архиве по умолчанию представлена погода в Amapala за последнюю неделю. Архивные данные за месяц целиком и за предыдущие месяцы, начиная с января 2011 года, Вы можете получить, выбрав интересующий диапазон дат из раскрывающегося списка и нажав кнопку "Ввод!".

Внимание! Время в таблицах - всемирное. Для получения местного времени необходимо прибавить поправку, которая в Amapala равна -6 ч.

Смотрите также архив погоды в соседних городах и на ближайших метеорологических станциях:

Погода в Choluteca (Гондурас) (51 км)
Погода в Chinandega (Никарагуа) (91 км)
Погода в Tegucigalpa (Гондурас) (99 км)
Погода в La Esperanza (Гондурас) (129 км)
Погода в Jinotega (Никарагуа) (182 км)
Погода в Managua (Никарагуа) (203 км)
Погода в Santa Rosa De Copan (Гондурас) (208 км)
Погода в Nueva Ocotepeque (Гондурас) (210 км)
Погода в Yoro (Гондурас) (219 км)
Погода в La Mesa (Гондурас) (244 км)

Пояснения к столбцам:

Ветер - указаны скорость ветра в м/с - средняя за 10 мин, порывы в срок и между сроками (в фигурных скобках) и направление, откуда дует ветер: С - северный, СВ - северо-восточный, В - восточный, ЮВ - юго-восточный, Ю - южный, ЮЗ - юго-западный, З - западный, СЗ - северо-западный.
Видимость - горизонтальная дальность видимости в метрах или километрах. При видимости от 1 до 10 км при отсутствии осадков обычно наблюдается дымка, при ухудшении видимости до 1 км и менее - туман. В сухую погоду видимость может ухудшаться дымом, пылью или мглою.
Явления - указаны атмосферные явления, наблюдавшиеся в срок или в последний час перед сроком; фигурными скобками обозначены явления, наблюдавшиеся между сроками (за 1-3 часа до срока); квадратными скобками обозначены град или гололедные отложения с указанием их диаметра в мм.
Облачность - указаны через наклонную черту общая и нижняя облачность в баллах и высота нижней границы облаков в метрах; квадратными скобками обозначены формы облаков: Ci - перистые, Cs - перисто-слоистые, Cc - перисто-кучевые, Ac - высококучевые, As - высокослоистые, Sc - слоисто-кучевые, Ns - слоисто-дождевые, Cu - кучевые, Cb - кучево-дождевые. Подробнее классификацию облаков см. в Атласе облаков (PDF).
T - Температура воздуха - температура, измеренная на высоте 2 м над землей.
Td - Температура точки росы - температура, при понижении до которой содержащийся в воздухе водяной пар достигнет насыщения.
f - Относительная влажность воздуха - влажноcть воздуха, измеренная на высоте 2 м над землей.
Te - Эффективная температура - температура, которую ощущает одетый по сезону человек в тени. Характеристика душности погоды. При расчете учитывается влияние влажности воздуха и скорости ветра на теплоощущения человека.
Tes - Эффективная температура на солнце - температура, которую ощущает человек, с поправкой на солнечный нагрев. Характеристика знойности погоды. Зависит от высоты солнца над горизонтом, облачности и скорости ветра. Ночью, в пасмурную погоду, а также при ветре 12 м/с и более поправка равна нулю.
P - Атмосферное давление - приведенное к уровню моря атмосферное давление.
Po - Атмосферное давление - измеренное на уровне метеостанции атмосферное давление.
Tmin - Минимальная температура - минимум температуры воздуха на высоте 2 м над землей.
Tmax - Максимальная температура - максимум температуры воздуха на высоте 2 м над землей.
R - Количество осадков - Количество выпавших осадков за период времени, мм. При наведении курсора мыши на число - период времени, за который выпало указанное количество осадков.
R24 - Количество осадков - Количество выпавших осадков за 24 часа, мм.
S - Снежный покров - Высота снежного покрова, см. При наведении курсора мыши на число - состояние снежного покрова и степень покрытия местности в баллах.